Weather in Teba

Russia / Kemerovo Oblast     53°38′33″N   88°32′58″E
temp.,
°C
wind,
m/s
gust,
m/s
humid.,
%
clouds,
%
prec.,
mm/h
press.,
hPa
HPBL,
m
20 may, fri
fri2001:00+14ssw3996100 1.9 1013811
04:00+13sw289393 2.3 1014252
07:00+13w158899 3.5 1016489
10:00+16wsw37607 0.2 10161534
13:00+20w47314 0.3 10162443
16:00+20wnw473114 0.0 10152679
19:00+18nw24425 0.0 10151231
22:00+13se1156100 0.0 101611
21 may, sat
sat2101:00+10se117389 0.2 101611
04:00+8se228473 0.4 101723
07:00+11se128098 0.4 1017118
10:00+18wsw494683 0.0 10161366
13:00+21w473792 0.0 10151886
16:00+22wnw24355 0.0 10141744
19:00+21nw01456 0.0 1013590
22:00+14e22631 0.0 101316
22 may, sun
sun2201:00+12ene22695 0.0 101131
04:00+11e22695 0.0 100930
07:00+14ene2364100 0.0 1006108
10:00+22e2538100 0.0 1004746
13:00+26se2329100 0.0 10021208
16:00+27sw1230100 0.0 10021491
19:00+24sw3745100 0.0 1003370
22:00+17se116976 0.0 100511
23 may, mon
mon2301:00+15e1176100 0.0 100711
04:00+15ssw117694 0.0 100911
07:00+14wsw3693100 0.4 1015613
10:00+9w5995100 3.8 1021797
13:00+8s1192100 4.9 1024268
16:00+11ssw0173100 0.0 1024602
19:00+12e016892 0.1 1023440
22:00+7e11880 0.0 102311
24 may, tue
tue2401:00+6ene22860 0.0 102322
04:00+6e21825 0.0 102119
07:00+10ene12735 0.0 1020148
10:00+18e12560 0.0 1018823
13:00+24nnw114436 0.0 10151328
16:00+24wnw2241100 0.0 10141773
19:00+21wnw2352100 0.0 1014198
22:00+15e1166100 0.0 101511